Location: Allos
(44.2333°N, 6.6333°E)
Time: 02:01:31
(UTC+00:00)

Cosmos 2366 rocket - Visible Passes

Search period start: 14 April 2021 00:00
Search period end: 24 April 2021 00:00
Orbit: 954 x 997 km, 82.9° (Epoch: 13 April)

Date Brightness Start Highest point End Pass type
(mag) Time Alt. Az. Time Alt. Az. Time Alt. Az.
14 Apr 3.9 01:40:57 10° N 01:47:08 80° E 01:48:01 66° SSE visible
14 Apr 5.5 03:28:12 10° NW 03:31:41 16° W 03:32:40 15° W visible
15 Apr 5.7 00:22:01 10° NNE 00:26:48 23° ENE 00:28:29 21° E visible
15 Apr 3.9 02:06:38 10° NNW 02:12:39 59° W 02:13:08 57° WSW visible
16 Apr 4.9 00:46:59 10° N 00:52:45 39° ENE 00:53:39 37° E visible
16 Apr 4.7 02:32:37 10° NNW 02:38:00 33° W 02:38:18 33° W visible
16 Apr 6.4 23:30:08 10° NE 23:31:51 11° ENE 23:33:33 10° ENE visible
17 Apr 4.0 01:12:18 10° N 01:18:28 70° E 01:18:50 68° ESE visible
17 Apr 5.4 02:59:09 10° NW 03:03:10 18° W 03:03:29 18° W visible
17 Apr 5.8 23:53:37 10° NNE 23:58:02 20° ENE 23:59:23 19° E visible
18 Apr 3.9 01:37:56 10° NNW 01:44:02 68° W 01:44:03 68° W visible
19 Apr 5.1 00:18:27 10° N 00:24:01 34° ENE 00:24:37 34° E visible
19 Apr 4.5 02:03:49 10° NNW 02:09:16 38° W 02:09:16 38° W visible
20 Apr 4.2 00:43:42 10° N 00:49:47 61° E 00:49:52 61° E visible
20 Apr 5.3 02:30:11 10° NW 02:34:32 21° W 02:34:32 21° W visible
20 Apr 5.9 23:25:16 10° NNE 23:29:15 17° ENE 23:30:28 17° E visible
21 Apr 3.9 01:09:14 10° N 01:15:08 76° WNW 01:15:08 76° WNW visible
21 Apr 5.9 02:57:58 10° WNW 02:59:40 11° WNW 02:59:48 11° WNW visible
21 Apr 5.3 23:49:56 10° N 23:55:17 30° ENE 23:55:45 30° E visible
22 Apr 4.4 01:35:03 10° NNW 01:40:25 43° W 01:40:25 43° W visible
23 Apr 4.4 00:15:06 10° N 00:21:03 53° ENE 00:21:03 53° ENE visible
23 Apr 5.2 02:01:15 10° NNW 02:05:44 24° WNW 02:05:44 24° WNW visible
23 Apr 6.0 22:56:59 10° NNE 23:00:27 15° ENE 23:01:43 14° ENE visible
